• In Germany
  • List of Countries
  • For 7 days
  • Water Temperature
  • Satellite Maps
  • Weather Map
  • Weather Widgets
  • user-avatar
    Login

    Hourly Weather Santa Cruz

    Today, 22 November, Wednesday

    Time Temperature Precipitation Wind Pressure Humidity
    00:00 +25°C° 1.5 mm 2 mps 721 mmHg 84%
    01:00 +24°C° 1.5 mm 2 mps 721 mmHg 88%
    02:00 +24°C° 1.5 mm 2 mps 722 mmHg 93%
    03:00 +22°C° 0.4 mm 3 mps 722 mmHg 90%
    04:00 +22°C° 0.4 mm 3 mps 722 mmHg 87%
    05:00 +22°C° 0.4 mm 3 mps 722 mmHg 84%
    06:00 +23°C° 0 mm 4 mps 723 mmHg 78%
    07:00 +25°C° 0 mm 4 mps 724 mmHg 72%
    08:00 +26°C° 0 mm 5 mps 724 mmHg 66%
    09:00 +27°C° 0 mm 5 mps 724 mmHg 62%
    10:00 +28°C° 0 mm 5 mps 724 mmHg 59%
    11:00 +29°C° 0 mm 5 mps 724 mmHg 55%
    12:00 +29°C° 0 mm 5 mps 724 mmHg 52%
    13:00 +30°C° 0 mm 5 mps 723 mmHg 50%
    14:00 +32°C° 0 mm 4 mps 722 mmHg 47%
    15:00 +32°C° 0 mm 4 mps 721 mmHg 48%
    16:00 +31°C° 0 mm 3 mps 721 mmHg 49%
    17:00 +30°C° 0 mm 3 mps 720 mmHg 50%
    18:00 +29°C° 0 mm 2 mps 720 mmHg 55%
    19:00 +27°C° 0 mm 2 mps 721 mmHg 59%
    20:00 +25°C° 0 mm 1 mps 721 mmHg 64%
    21:00 +25°C° 0 mm 1 mps 722 mmHg 65%
    22:00 +25°C° 0 mm 1 mps 722 mmHg 65%
    23:00 +25°C° 0 mm 1 mps 723 mmHg 66%

    Tomorrow, 23 November, Thursday

    Time Temperature Precipitation Wind Pressure Humidity
    00:00 +24°C° 0 mm 1 mps 722 mmHg 65%
    01:00 +24°C° 0 mm 1 mps 722 mmHg 65%
    02:00 +24°C° 0 mm 2 mps 722 mmHg 65%
    03:00 +24°C° 0 mm 1 mps 722 mmHg 66%
    04:00 +24°C° 0 mm 1 mps 722 mmHg 66%
    05:00 +24°C° 0 mm 1 mps 722 mmHg 66%
    06:00 +26°C° 0 mm 2 mps 722 mmHg 60%
    07:00 +27°C° 0 mm 2 mps 723 mmHg 54%
    08:00 +29°C° 0 mm 3 mps 723 mmHg 49%
    09:00 +31°C° 0 mm 2 mps 723 mmHg 44%
    10:00 +34°C° 0 mm 2 mps 723 mmHg 39%
    11:00 +35°C° 0 mm 2 mps 723 mmHg 34%
    12:00 +35°C° 0 mm 1 mps 722 mmHg 33%
    13:00 +36°C° 0 mm 1 mps 721 mmHg 32%
    14:00 +37°C° 0 mm 1 mps 720 mmHg 31%
    15:00 +37°C° 0 mm 2 mps 720 mmHg 33%
    16:00 +36°C° 0 mm 2 mps 719 mmHg 36%
    17:00 +36°C° 0 mm 2 mps 719 mmHg 39%
    18:00 +34°C° 0 mm 2 mps 719 mmHg 45%
    19:00 +31°C° 0 mm 1 mps 720 mmHg 51%
    20:00 +29°C° 0 mm 1 mps 720 mmHg 57%
    21:00 +28°C° 0 mm 1 mps 721 mmHg 59%
    22:00 +28°C° 0 mm 1 mps 721 mmHg 61%
    23:00 +27°C° 0 mm 1 mps 721 mmHg 62%

    Day after tomorrow, 24 November, Friday

    Time Temperature Precipitation Wind Pressure Humidity
    00:00 +27°C° 0 mm 1 mps 721 mmHg 63%
    01:00 +26°C° 0 mm 1 mps 720 mmHg 64%
    02:00 +26°C° 0 mm 1 mps 720 mmHg 65%
    03:00 +26°C° 0 mm 1 mps 720 mmHg 66%
    04:00 +25°C° 0 mm 1 mps 720 mmHg 67%
    05:00 +25°C° 0 mm 1 mps 720 mmHg 67%
    06:00 +27°C° 0 mm 1 mps 720 mmHg 62%
    07:00 +29°C° 0 mm 1 mps 721 mmHg 56%
    08:00 +31°C° 0 mm 2 mps 722 mmHg 51%
    09:00 +34°C° 0 mm 2 mps 722 mmHg 46%
    10:00 +36°C° 0 mm 3 mps 722 mmHg 41%
    11:00 +38°C° 0 mm 4 mps 722 mmHg 36%
    12:00 +38°C° 0 mm 4 mps 721 mmHg 35%
    13:00 +40°C° 0 mm 4 mps 720 mmHg 34%
    14:00 +40°C° 0 mm 4 mps 719 mmHg 33%
    15:00 +40°C° 0 mm 4 mps 718 mmHg 35%
    16:00 +38°C° 0 mm 4 mps 718 mmHg 37%
    17:00 +37°C° 0 mm 4 mps 717 mmHg 39%
    18:00 +36°C° 0 mm 3 mps 718 mmHg 44%
    19:00 +34°C° 0 mm 2 mps 718 mmHg 48%
    20:00 +31°C° 0 mm 2 mps 719 mmHg 53%
    21:00 +31°C° 0 mm 2 mps 719 mmHg 56%
    22:00 +30°C° 0 mm 2 mps 720 mmHg 58%
    23:00 +30°C° 0 mm 2 mps 720 mmHg 61%

    25 November, Saturday

    Time Temperature Precipitation Wind Pressure Humidity
    00:00 +29°C° 0 mm 2 mps 720 mmHg 62%
    01:00 +29°C° 0 mm 2 mps 719 mmHg 64%
    02:00 +29°C° 0 mm 3 mps 719 mmHg 66%
    03:00 +28°C° 0 mm 3 mps 719 mmHg 68%
    04:00 +28°C° 0 mm 2 mps 719 mmHg 71%
    05:00 +27°C° 0 mm 2 mps 719 mmHg 73%
    06:00 +29°C° 0 mm 3 mps 719 mmHg 67%
    07:00 +30°C° 0 mm 4 mps 720 mmHg 61%
    08:00 +33°C° 0 mm 4 mps 721 mmHg 56%
    09:00 +34°C° 0 mm 5 mps 721 mmHg 50%
    10:00 +36°C° 0 mm 5 mps 721 mmHg 45%
    11:00 +39°C° 0 mm 5 mps 721 mmHg 40%
    12:00 +39°C° 0 mm 5 mps 720 mmHg 38%
    13:00 +40°C° 0 mm 5 mps 719 mmHg 36%
    14:00 +41°C° 0 mm 5 mps 718 mmHg 34%
    15:00 +40°C° 0 mm 4 mps 718 mmHg 36%
    16:00 +38°C° 0 mm 3 mps 718 mmHg 38%
    17:00 +37°C° 0 mm 3 mps 718 mmHg 40%
    18:00 +36°C° 0.1 mm 2 mps 718 mmHg 45%
    19:00 +34°C° 0.1 mm 2 mps 719 mmHg 50%
    20:00 +32°C° 0.1 mm 1 mps 720 mmHg 55%
    21:00 +30°C° 2.1 mm 2 mps 720 mmHg 67%
    22:00 +28°C° 2.1 mm 2 mps 721 mmHg 78%
    23:00 +26°C° 2.1 mm 2 mps 721 mmHg 89%

    26 November, Sunday

    Time Temperature Precipitation Wind Pressure Humidity
    00:00 +26°C° 0.6 mm 2 mps 721 mmHg 91%
    01:00 +25°C° 0.6 mm 2 mps 720 mmHg 93%
    02:00 +25°C° 0.6 mm 3 mps 720 mmHg 95%
    03:00 +25°C° 0.4 mm 3 mps 720 mmHg 95%
    04:00 +25°C° 0.4 mm 2 mps 720 mmHg 95%
    05:00 +25°C° 0.4 mm 2 mps 720 mmHg 94%
    06:00 +25°C° 0.1 mm 3 mps 721 mmHg 90%
    07:00 +26°C° 0.1 mm 3 mps 722 mmHg 86%
    08:00 +27°C° 0.1 mm 3 mps 722 mmHg 82%
    09:00 +29°C° 0.3 mm 3 mps 722 mmHg 73%
    10:00 +31°C° 0.3 mm 3 mps 722 mmHg 63%
    11:00 +34°C° 0.3 mm 2 mps 722 mmHg 54%
    12:00 +34°C° 0.3 mm 2 mps 721 mmHg 52%
    13:00 +33°C° 0.3 mm 1 mps 720 mmHg 50%
    14:00 +32°C° 0.3 mm 0 mps 719 mmHg 48%
    15:00 +34°C° 0 mm 1 mps 718 mmHg 49%
    16:00 +33°C° 0 mm 1 mps 718 mmHg 49%
    17:00 +34°C° 0 mm 2 mps 717 mmHg 50%
    18:00 +31°C° 0 mm 2 mps 718 mmHg 58%
    19:00 +30°C° 0 mm 2 mps 718 mmHg 66%
    20:00 +28°C° 0 mm 1 mps 719 mmHg 74%
    21:00 +27°C° 0 mm 1 mps 719 mmHg 76%
    22:00 +27°C° 0 mm 2 mps 719 mmHg 79%
    23:00 +26°C° 0 mm 2 mps 719 mmHg 82%

    27 November, Monday

    Time Temperature Precipitation Wind Pressure Humidity
    00:00 +26°C° 0.2 mm 2 mps 719 mmHg 85%
    01:00 +26°C° 0.2 mm 2 mps 718 mmHg 87%
    02:00 +25°C° 0.2 mm 2 mps 718 mmHg 90%
    03:00 +25°C° 0.1 mm 3 mps 718 mmHg 91%
    04:00 +25°C° 0.1 mm 3 mps 718 mmHg 91%
    05:00 +25°C° 0.1 mm 3 mps 718 mmHg 92%
    06:00 +26°C° 0 mm 4 mps 718 mmHg 86%
    07:00 +27°C° 0 mm 4 mps 719 mmHg 80%
    08:00 +28°C° 0 mm 5 mps 720 mmHg 74%
    09:00 +30°C° 0 mm 5 mps 719 mmHg 68%
    10:00 +32°C° 0 mm 5 mps 719 mmHg 62%
    11:00 +33°C° 0 mm 6 mps 719 mmHg 56%
    12:00 +35°C° 0 mm 6 mps 719 mmHg 52%
    13:00 +36°C° 0 mm 6 mps 718 mmHg 48%
    14:00 +38°C° 0 mm 6 mps 717 mmHg 44%
    15:00 +36°C° 0 mm 5 mps 717 mmHg 47%
    16:00 +35°C° 0 mm 5 mps 717 mmHg 49%
    17:00 +34°C° 0 mm 5 mps 717 mmHg 51%
    18:00 +33°C° 0 mm 4 mps 717 mmHg 57%
    19:00 +31°C° 0 mm 3 mps 718 mmHg 63%
    20:00 +29°C° 0 mm 2 mps 719 mmHg 69%
    21:00 +29°C° 0.1 mm 2 mps 719 mmHg 71%
    22:00 +28°C° 0.1 mm 3 mps 720 mmHg 74%
    23:00 +27°C° 0.1 mm 3 mps 720 mmHg 76%
    Show more